OneWeb SL0573

operational
NORAD ID: 55152 Int'l Des: 2023-004 Owner: ONEWEBN Country: UK Constellation: oneweb
LEOCIRCULARPOLARONEWEB_TYPE

OneWeb SL0573について

説明を読み込み中...

リアルタイム位置

3D地球を読み込み中...

次回通過

高度履歴

Altitude vs Time

uPlot chart will show altitude changes over time

軌道要素

1 55152U 23004N 25257.83440595 -.00000109 00000-0 -30976-3 0 9996
2 55152 87.9172 30.1823 0002176 121.8730 238.2614 13.18686159133404
Epoch: Sep 14, 2025 • Age: 30 hours

現在のステータス

高度 1200.5 km
速度 7.26 km/s
衛星直下点 70.98°N, 177.05°W
打ち上げ日 Jan 10, 2023
運用期間 2.6 years
タイプ internet

技術仕様

分類 Payload
質量 148.00 kg
乾燥質量 140.00 kg
総質量 148.00 kg
長さ 1.30 m
直径 1.00 m
スパン 5.00 m
形状 Trapezoid+2 pan
製造者 ONEWUS
バスタイプ ARROW
フェーズステータス In Orbit
所有者/国 ONEWEBN/UK

大規模コンステレーション

Loading constellations...